Helicity
253 284 253 240 262 173 119 111 128 164 156 191 132 83 66 84 142 159 226 22 99 124 219 350 449 457 466 429 324 216 258 211 230 194 188 160 119 99 102 93 88 81 71 79
179 166 147 130 84 53 38 102 202 249 193 152 74 47 49 46 94 145 194 163 122 196 317 437 477 503 465 386 279 184 178 165 167 175 143 130 110 91 104 106 116 119 123 124
144 99 63 63 42 41 18 97 152 133 153 135 90 54 37 55 122 140 198 171 113 170 297 420 462 458 431 344 262 155 116 138 153 137 159 172 166 157 164 135 121 120 130 137
53 3 34 19 31 27 105 99 112 139 164 91 71 38 41 94 174 266 236 143 97 93 191 277 399 393 342 261 213 155 142 180 164 159 167 151 130 128 120 133 147 145 151 143
59 66 59 56 70 127 101 118 143 85 114 132 104 91 47 140 217 211 188 88 62 79 210 245 330 285 225 220 180 186 155 160 173 179 172 169 144 120 125 146 155 168 170 156
42 67 75 125 103 119 125 214 252 162 135 148 41 141 92 90 176 207 153 90 102 133 175 237 230 229 201 198 170 158 189 194 152 169 158 157 139 125 150 176 211 231 254 288
130 97 70 130 155 191 139 193 184 188 173 80 71 137 72 150 180 152 130 117 140 163 247 273 274 250 222 230 216 183 172 169 189 192 170 154 155 172 181 195 208 233 266 283
36 78 99 81 88 94 120 133 142 149 115 99 112 111 62 147 181 159 141 125 149 187 199 238 235 239 238 226 184 154 146 132 162 197 216 198 206 208 201 198 200 202 202 192
52 50 74 84 115 112 102 60 63 93 89 115 93 131 162 160 168 178 128 118 127 168 201 232 252 252 267 259 223 195 193 189 203 223 207 212 227 237 243 244 231 202 181 170
42 59 63 23 32 50 61 63 93 108 74 88 79 141 113 104 132 119 127 119 125 157 203 213 203 195 181 173 174 203 208 205 171 158 161 171 189 205 221 237 232 202 184 175
20 31 55 52 46 43 80 93 99 96 102 104 128 118 74 95 106 118 93 112 130 161 174 171 166 154 140 142 164 157 147 131 126 121 113 125 146 198 213 207 212 203 164 136
43 42 34 36 62 75 71 59 79 90 98 93 78 67 69 68 93 153 101 144 181 198 194 139 129 166 194 171 136 104 85 74 66 83 126 164 183 182 187 178 152 135 122 110
52 44 40 65 61 72 57 56 95 99 102 89 108 77 108 150 202 197 221 218 255 245 198 223 277 300 269 215 184 176 171 148 132 182 212 203 157 162 164 143 118 101 96 92
16 47 37 14 21 33 46 47 53 83 87 74 78 81 120 191 234 221 234 222 207 160 192 247 292 289 230 184 179 162 138 126 157 197 188 175 174 147 112 90 87 94 89 92
34 43 54 31 42 48 41 33 50 57 73 82 117 102 86 122 130 133 136 185 190 187 318 327 318 264 205 186 164 147 145 163 187 192 182 153 114 96 95 106 99 94 93 91
45 37 52 22 45 40 35 33 33 36 49 52 98 130 141 76 137 162 184 219 218 353 455 433 360 291 219 176 154 136 154 179 174 170 138 115 113 111 111 104 96 94 84 85
27 40 49 32 33 38 37 34 57 74 96 104 91 78 117 154 174 167 208 240 405 434 404 371 314 248 194 163 137 146 151 140 143 124 110 99 107 118 99 87 91 86 87 96
30 45 46 28 51 31 41 59 48 45 83 118 127 99 101 98 171 215 212 372 419 406 387 331 253 213 176 132 125 130 142 136 114 100 93 98 106 88 77 88 98 104 111 120
55 57 56 53 51 37 46 49 68 97 75 68 79 92 109 159 217 282 302 323 327 337 305 246 211 164 135 132 123 139 128 107 96 88 87 89 81 75 88 106 109 104 114 116
74 85 81 82 65 34 39 51 57 77 41 68 99 97 136 190 190 197 257 287 327 285 241 213 158 118 120 119 120 121 104 99 92 82 88 84 76 91 112 111 96 100 132 122
82 93 92 97 69 38 45 69 72 60 11 65 106 137 190 189 159 232 291 309 268 234 213 155 124 119 104 91 92 93 88 86 81 99 102 94 87 106 102 101 107 125 97 103
68 84 57 107 94 20 69 79 54 51 84 128 180 185 242 317 313 341 321 296 264 220 148 113 122 105 71 66 81 76 77 76 90 107 112 96 91 95 98 123 116 86 100 123
66 69 59 84 -3 -44 1 60 99 122 146 161 203 214 256 282 285 274 276 250 206 150 113 95 102 94 63 56 70 78 76 79 105 127 105 91 87 88 106 107 76 94 121 131
70 83 38 -14 -21 8 73 126 146 176 179 180 196 218 238 271 243 268 255 216 166 120 101 108 111 89 65 67 85 79 73 90 117 103 93 83 81 73 102 107 93 128 119 111
51 2 -43 -12 -22 67 72 116 174 207 217 231 220 231 250 276 275 249 222 168 123 113 113 99 77 66 66 73 68 72 79 94 102 101 91 78 78 86 105 113 121 119 113 76
51 34 23 -30 -6 89 76 91 198 233 225 204 246 274 265 260 236 204 159 123 124 110 89 72 69 75 58 62 66 70 83 112 116 95 80 62 80 95 104 112 112 76 53 19
Wind_Speed
54 56 69 63 56 49 48 51 54 51 39 42 50 57 55 48 50 42 36 31 40 30 25 9 5 8 6 6 8 10 12 10 13 18 17 20 21 20 20 18 18 22 25 30
53 70 61 49 51 56 58 54 48 40 33 41 43 49 46 43 44 36 30 26 39 41 23 9 2 5 4 5 7 7 7 7 11 15 16 20 18 20 19 19 20 24 28 35
54 58 59 58 54 55 60 55 46 43 37 43 41 55 52 47 35 28 29 28 33 42 12 6 2 1 6 7 7 5 4 5 7 12 17 23 25 27 26 24 26 29 32 36
53 58 62 62 63 57 61 43 32 31 27 47 40 56 48 31 28 24 28 36 40 30 14 5 2 2 5 10 7 4 4 3 6 11 16 21 27 31 33 37 37 37 38 40
46 49 47 59 51 43 52 36 29 26 38 43 42 51 52 27 28 27 29 34 37 33 27 4 2 2 7 9 9 9 6 7 10 12 15 22 29 34 40 46 47 44 40 42
37 46 38 37 39 36 24 25 28 32 40 58 51 46 49 34 26 25 30 35 39 36 28 8 6 7 9 13 11 12 17 22 23 21 22 28 33 38 43 48 51 49 48 49
46 33 29 34 28 32 31 31 39 44 47 55 46 39 45 26 22 21 26 32 33 31 24 16 12 14 14 17 19 21 25 29 34 34 34 35 38 40 43 46 49 51 52 52
33 39 33 34 40 37 34 36 37 44 43 43 38 41 37 19 20 21 24 26 27 28 24 22 21 21 23 26 29 31 33 33 37 39 42 40 38 42 45 48 51 54 57 60
38 33 35 30 30 32 39 42 32 36 37 39 36 36 31 19 18 20 20 23 25 25 25 25 26 27 28 30 33 34 34 33 36 39 40 43 46 49 53 54 55 58 61 65
32 31 33 33 28 28 32 28 37 39 45 48 41 40 40 17 13 14 19 21 22 23 25 26 27 28 30 31 33 35 37 39 39 42 45 49 53 56 56 57 62 64 68 71
35 32 35 32 39 38 33 34 35 34 37 38 39 40 28 3 5 11 16 17 18 21 23 24 25 26 26 29 32 33 35 38 41 44 48 54 60 61 62 63 65 67 69 73
34 32 33 35 34 33 34 36 34 40 41 37 37 43 39 4 3 8 11 15 19 20 22 22 24 27 31 34 36 38 41 44 45 46 51 56 58 60 63 65 67 71 76 77
38 37 33 38 39 37 37 32 27 26 30 36 39 37 26 13 9 9 13 15 17 20 21 25 28 34 38 43 47 50 54 56 53 52 56 59 62 63 64 66 70 72 74 78
32 35 32 34 31 31 33 29 28 28 33 34 35 25 16 14 14 9 11 12 13 15 18 24 30 36 43 48 51 55 57 56 55 56 57 63 64 62 65 68 70 71 75 79
31 32 30 27 29 30 30 25 24 27 25 32 30 32 14 10 9 6 5 10 12 15 23 29 35 40 45 49 53 57 60 60 59 59 62 61 63 66 68 68 71 74 77 78
35 34 34 32 34 36 37 34 27 25 28 34 34 36 31 20 9 10 10 12 15 22 28 35 41 45 50 54 57 59 60 60 60 63 65 65 68 68 66 70 74 75 75 76
31 32 31 31 33 38 46 32 26 26 26 23 29 26 21 28 24 19 15 17 21 25 32 40 46 50 53 56 56 59 58 60 64 66 65 66 64 64 68 71 73 75 75 73
29 28 30 33 38 42 35 32 31 25 23 22 23 20 25 26 29 31 26 24 29 33 40 46 50 54 57 57 57 55 56 60 64 66 65 61 63 69 72 73 73 71 70 70
30 28 32 37 38 47 41 36 32 27 26 23 21 19 22 25 31 40 35 32 34 39 44 48 52 56 60 61 58 55 59 63 66 66 63 60 64 70 72 73 72 68 68 68
32 32 32 34 39 40 36 29 28 30 34 27 18 15 20 27 42 41 32 36 40 43 47 51 55 55 58 59 58 61 63 63 64 62 59 60 65 69 70 69 67 64 64 68
30 35 29 31 37 44 35 23 27 33 36 22 23 20 23 34 40 33 33 40 41 45 50 51 53 58 59 59 61 66 65 61 58 55 57 62 65 67 64 62 64 65 74 71
29 28 31 29 34 40 17 23 22 24 25 23 30 30 33 33 35 35 38 42 45 48 50 51 56 59 57 61 64 66 64 59 54 53 57 62 65 65 61 64 66 75 72 67
33 26 32 20 38 44 21 21 19 19 20 24 29 29 30 33 35 36 40 42 45 48 51 52 57 58 60 61 60 63 61 56 51 54 59 64 65 65 62 67 78 75 62 51
33 29 46 49 48 30 12 15 12 17 22 27 30 29 31 35 34 38 40 44 48 51 55 57 59 62 64 59 56 57 57 54 52 55 60 62 66 67 65 68 72 59 47 43
40 47 51 53 53 21 5 9 6 17 25 29 30 32 32 33 36 38 42 45 50 55 57 58 61 62 60 56 56 55 55 51 51 52 57 62 65 65 64 65 64 50 46 30
58 58 54 51 26 8 16 5 10 17 22 26 29 32 32 32 35 38 43 47 53 56 58 58 59 57 59 56 55 52 51 50 51 53 56 67 62 63 67 66 53 53 46 32
Wind_Direction
237 235 233 238 242 251 256 258 262 268 269 275 280 283 288 296 299 306 308 319 316 302 300 311 19 82 61 30 18 2 359 13 9 358 0 353 345 348 348 351 352 348 341 338
237 236 238 239 244 249 253 257 261 271 268 278 285 289 297 295 299 311 311 333 313 316 295 289 2 350 10 10 10 14 5 5 359 355 354 348 345 340 339 339 338 335 330 328
238 239 239 242 244 246 250 254 257 267 271 278 286 290 297 301 304 313 327 339 336 320 301 247 249 3 15 3 12 44 27 3 8 0 350 348 350 344 335 330 327 325 325 324
243 239 241 241 247 249 249 257 260 258 263 278 278 288 298 308 310 325 328 330 335 349 7 206 194 35 12 359 23 37 29 31 360 351 341 332 328 325 325 323 321 318 318 318
242 240 248 240 250 252 251 263 255 258 274 283 284 289 295 309 306 318 332 337 343 342 343 174 174 38 14 8 3 4 354 336 336 333 331 328 326 325 325 325 322 321 321 318
245 251 256 250 253 249 244 260 274 281 279 275 281 282 291 295 304 320 333 337 341 341 348 76 85 46 18 5 5 354 346 343 336 330 325 322 321 321 320 321 322 323 323 325
235 245 258 247 247 252 257 250 263 268 273 279 295 282 292 306 315 327 339 346 351 5 24 36 27 12 8 4 359 350 339 331 333 333 329 324 321 320 320 323 323 322 322 323
239 246 252 253 249 250 249 251 262 269 276 286 293 293 302 316 337 349 354 4 7 12 20 20 17 11 2 354 346 342 338 335 332 332 333 334 331 327 325 325 324 322 321 320
249 261 254 263 266 258 252 255 276 283 288 291 295 304 312 323 338 356 6 10 8 10 16 14 8 3 1 357 354 353 351 350 347 343 339 338 335 330 327 327 326 324 322 320
256 259 256 256 266 272 266 273 270 280 283 285 295 295 299 298 321 348 358 2 11 13 11 9 8 7 4 359 357 354 351 347 346 343 340 336 333 330 329 328 326 325 323 322
254 257 254 264 257 261 273 276 285 291 290 292 297 301 324 333 333 350 1 11 15 14 14 15 16 18 15 7 0 356 351 345 341 338 335 333 330 328 328 327 326 325 324 322
262 265 257 264 273 279 281 281 283 281 285 296 302 299 313 298 26 31 26 17 15 16 17 23 17 8 4 2 355 349 344 339 336 334 334 332 332 331 329 327 326 325 323 323
264 259 271 267 274 279 279 285 296 302 305 298 297 312 340 4 14 22 15 17 14 13 14 11 7 359 354 351 347 345 342 339 337 336 334 333 332 332 330 329 327 327 326 325
281 276 285 276 290 295 287 290 295 301 299 305 310 326 341 353 358 15 7 9 13 15 6 358 353 350 347 344 342 341 339 339 338 337 335 334 334 334 332 330 330 329 328 326
292 288 297 306 301 302 306 311 306 300 308 311 322 328 345 348 349 351 26 12 12 356 350 347 345 344 344 342 341 340 339 338 337 337 336 336 334 333 332 333 332 331 330 329
283 289 295 306 299 298 298 304 316 318 314 311 320 326 339 347 352 2 8 8 348 349 349 346 344 343 341 340 340 339 338 338 338 337 335 334 334 335 335 334 333 333 332 332
288 290 300 305 307 304 291 313 319 323 330 331 324 335 354 349 2 6 2 353 350 346 344 342 341 341 342 341 340 339 339 339 337 335 335 335 337 337 337 336 336 334 333 334
302 305 308 307 306 301 322 330 332 335 336 347 350 359 353 355 359 359 356 352 349 346 343 342 342 342 342 341 340 339 339 339 337 335 336 339 339 337 337 337 336 336 336 336
308 316 318 311 311 307 316 322 331 334 334 341 347 360 12 9 358 349 356 356 350 347 346 346 345 343 342 341 341 340 338 338 337 337 339 341 340 339 339 338 337 338 338 339
310 317 319 319 317 320 326 339 346 338 322 332 19 24 8 358 337 338 351 352 351 351 349 347 345 345 343 343 342 339 336 336 338 340 341 342 341 340 339 340 341 342 343 341
325 316 320 322 320 315 324 351 339 314 314 16 10 6 353 341 342 352 354 352 353 350 348 349 348 346 346 345 342 339 338 339 341 343 342 342 342 342 343 345 345 344 341 342
328 329 325 325 324 323 15 334 337 354 9 9 357 356 353 355 356 356 354 351 350 350 350 350 348 346 347 346 344 343 342 343 344 345 344 344 344 345 346 345 345 343 345 347
321 328 327 338 286 242 126 355 3 17 11 4 358 359 359 354 352 353 352 353 353 351 349 350 347 345 345 345 346 345 347 348 348 347 345 345 345 346 347 345 342 346 351 354
320 321 279 251 235 184 140 7 23 12 3 358 356 357 354 353 356 355 356 354 352 351 350 349 348 346 344 347 350 351 351 353 352 349 348 348 346 344 348 349 350 354 357 357
297 250 237 241 242 297 155 168 28 3 359 357 358 356 357 0 359 358 356 354 353 352 351 350 348 347 349 352 352 354 355 357 355 355 353 349 346 348 352 354 355 360 1 1
243 237 228 227 194 119 14 34 7 357 356 358 359 0 5 5 2 1 357 355 353 352 352 352 352 353 352 354 355 356 359 359 358 357 356 344 351 353 353 357 2 3 7 7